Clemson, SC

2:10 AM EST on November 22, 2017 (GMT -0500)
Oconee County Regional

Weather History for KCEU - October, 2013

Change the Weather History Date:

Sunday, October 27, 2013

  Actual Average Record
Temperature  
Mean Temperature 58 °F -  
Max Temperature 73 °F 71 °F 88 °F (1940)
Min Temperature 44 °F 45 °F 26 °F (1962)
Degree Days  
Heating Degree Days 6    
Growing Degree Days 8 (Base 50)    
Moisture  
Dew Point 44 °F    
Average Humidity 61    
Maximum Humidity 81    
Minimum Humidity 40    
Precipitation  
Precipitation 0.00 in - - ()
Sea Level Pressure  
Sea Level Pressure 30.10 in    
Wind  
Wind Speed 5 mph (WSW)    
Max Wind Speed 9 mph    
Max Gust Speed 18 mph    
Visibility 10 miles    
Events      
Averages and records for this station are not official NWS values.
T = Trace of Precipitation, MM = Missing Value Source: NWS Daily Summary

Daily Weather History Graph

Daily Weather History Graph

Search for Another Location

Airport or City:

Trip Planner

Search our weather history database for the weather conditions in past years. The results will help you decide how hot, cold, wet, or windy it might be!

Date:

Astronomy

Oct. 27, 2013 Rise Set
Actual Time 7:47 AM EDT 6:42 PM EDT
Civil Twilight 7:21 AM EDT 7:08 PM EDT
Nautical Twilight 6:52 AM EDT 7:37 PM EDT
Astronomical Twilight 6:22 AM EDT 8:07 PM EDT
Moon 1:00 AM EDT (10/27) 2:36 PM EDT (10/27)
Length of Visible Light 11h 46m
Length of Day
10h 54m
Last Quarter, 44% of the Moon is Illuminated
Oct 27
Last Quarter
Nov 3
New
Nov 10
First Quarter
Nov 17
Full
Nov 25
Last Quarter

Hourly Weather History & Observations

Time (EDT) Temp. Windchill Dew Point Humidity Pressure Visibility Wind Dir Wind Speed Gust Speed Precip Events Conditions
12:54 AM 50.0 °F - 32.0 °F 50% 30.10 in 10.0 mi WSW 6.9 mph - N/A   Clear
1:54 AM 50.0 °F - 32.0 °F 50% 30.10 in 10.0 mi West 4.6 mph - N/A   Clear
2:54 AM 48.9 °F - 33.1 °F 54% 30.07 in 10.0 mi SW 8.1 mph - N/A   Clear
3:54 AM 46.9 °F - 35.1 °F 63% 30.07 in 10.0 mi WNW 5.8 mph - N/A   Clear
4:54 AM 46.0 °F 43.9 °F 36.0 °F 68% 30.07 in 10.0 mi NNW 4.6 mph - N/A   Clear
5:54 AM 45.0 °F - 39.0 °F 80% 30.08 in 10.0 mi Calm Calm - N/A   Clear
6:54 AM 44.1 °F - 37.9 °F 79% 30.10 in 10.0 mi Calm Calm - N/A   Clear
7:54 AM 45.0 °F - 39.0 °F 80% 30.11 in 10.0 mi Calm Calm - N/A   Clear
8:54 AM 48.0 °F - 42.1 °F 80% 30.12 in 10.0 mi Calm Calm - N/A   Clear
9:54 AM 50.0 °F - 42.1 °F 74% 30.14 in 10.0 mi East 3.5 mph - N/A   Clear
10:54 AM 59.0 °F - 44.1 °F 58% 30.14 in 10.0 mi Calm Calm - N/A   Clear
11:54 AM 62.1 °F - 44.1 °F 52% 30.14 in 10.0 mi Variable 3.5 mph - N/A   Clear
12:54 PM 66.0 °F - 44.1 °F 45% 30.13 in 10.0 mi WSW 5.8 mph - N/A   Clear
1:54 PM 70.0 °F - 46.0 °F 42% 30.10 in 10.0 mi West 4.6 mph - N/A   Clear
2:54 PM 72.0 °F - 46.9 °F 41% 30.07 in 10.0 mi WSW 8.1 mph 18.4 mph N/A   Partly Cloudy
3:54 PM 73.9 °F - 48.0 °F 40% 30.06 in 10.0 mi WNW 6.9 mph - N/A   Partly Cloudy
4:54 PM 72.0 °F - 48.9 °F 44% 30.07 in 10.0 mi Variable 6.9 mph - N/A   Mostly Cloudy
5:54 PM 69.1 °F - 48.9 °F 49% 30.08 in 10.0 mi WSW 9.2 mph - N/A   Scattered Clouds
6:54 PM 66.0 °F - 51.1 °F 59% 30.09 in 10.0 mi WSW 8.1 mph - N/A   Mostly Cloudy
7:54 PM 63.0 °F - 51.1 °F 65% 30.10 in 10.0 mi WSW 8.1 mph - N/A   Scattered Clouds
8:54 PM 62.1 °F - 51.1 °F 67% 30.11 in 10.0 mi WSW 9.2 mph - N/A   Mostly Cloudy
9:54 PM 60.1 °F - 51.1 °F 72% 30.13 in 10.0 mi WSW 9.2 mph - N/A   Partly Cloudy
10:54 PM 57.0 °F - 51.1 °F 81% 30.14 in 10.0 mi WSW 8.1 mph - N/A   Mostly Cloudy
11:54 PM 59.0 °F - 51.1 °F 75% 30.13 in 10.0 mi WSW 8.1 mph - N/A   Mostly Cloudy